TimeEDT,TemperatureF,Dew PointF,Humidity,Sea Level PressureIn,VisibilityMPH,Wind Direction,Wind SpeedMPH,Gust SpeedMPH,PrecipitationIn,Events,Conditions,WindDirDegrees,DateUTC
12:14 AM,53.2,48.9,85,30.06,10.0,Calm,Calm,-,N/A,,Clear,0,2013-07-25 04:14:00
12:35 AM,53.1,49.1,86,30.06,10.0,Calm,Calm,-,N/A,,Clear,0,2013-07-25 04:35:00
12:54 AM,51.8,49.1,90,30.06,10.0,Calm,Calm,-,N/A,,Clear,0,2013-07-25 04:54:00
1:14 AM,52.0,49.1,90,30.06,10.0,Calm,Calm,-,N/A,,Clear,0,2013-07-25 05:14:00
1:35 AM,52.0,50.0,93,30.06,10.0,Calm,Calm,-,N/A,,Clear,0,2013-07-25 05:35:00
1:54 AM,51.1,48.0,89,30.06,10.0,Calm,Calm,-,N/A,,Clear,0,2013-07-25 05:54:00
2:15 AM,50.7,49.3,95,30.06,10.0,Calm,Calm,-,N/A,,Clear,0,2013-07-25 06:15:00
2:34 AM,50.2,49.1,96,30.06,10.0,Calm,Calm,-,N/A,,Clear,0,2013-07-25 06:34:00
2:55 AM,49.1,47.1,93,30.06,10.0,Calm,Calm,-,N/A,,Clear,0,2013-07-25 06:55:00
3:14 AM,50.2,48.7,95,30.05,10.0,Calm,Calm,-,N/A,,Clear,0,2013-07-25 07:14:00
3:35 AM,49.5,47.7,94,30.06,10.0,Calm,Calm,-,N/A,,Clear,0,2013-07-25 07:35:00
3:55 AM,48.6,47.3,95,30.05,10.0,Calm,Calm,-,N/A,,Clear,0,2013-07-25 07:55:00
4:14 AM,50.2,49.3,97,30.05,10.0,Calm,Calm,-,N/A,,Clear,0,2013-07-25 08:14:00
4:35 AM,49.1,48.7,99,30.05,10.0,East,3.5,-,N/A,,Clear,90,2013-07-25 08:35:00
4:54 AM,48.2,48.0,99,30.06,10.0,East,3.5,-,N/A,,Clear,90,2013-07-25 08:54:00
5:15 AM,49.6,49.3,99,30.07,10.0,Calm,Calm,-,N/A,,Clear,0,2013-07-25 09:15:00
5:34 AM,51.3,50.7,98,30.07,10.0,East,3.5,-,N/A,,Clear,80,2013-07-25 09:34:00
5:55 AM,49.6,49.3,99,30.07,10.0,East,4.6,-,N/A,,Clear,80,2013-07-25 09:55:00
6:14 AM,49.3,49.1,99,30.08,10.0,Calm,Calm,-,N/A,,Clear,0,2013-07-25 10:14:00
6:35 AM,49.8,49.6,99,30.08,10.0,East,4.6,-,N/A,,Clear,80,2013-07-25 10:35:00
6:55 AM,50.0,48.9,96,30.08,10.0,Calm,Calm,-,N/A,,Clear,0,2013-07-25 10:55:00
7:14 AM,52.2,50.7,95,30.08,10.0,Calm,Calm,-,N/A,,Clear,0,2013-07-25 11:14:00
7:35 AM,54.3,52.2,92,30.09,10.0,Calm,Calm,-,N/A,,Clear,0,2013-07-25 11:35:00
7:54 AM,56.1,52.7,88,30.09,10.0,Calm,Calm,-,N/A,,Clear,0,2013-07-25 11:54:00
8:15 AM,57.9,51.4,79,30.09,10.0,SE,3.5,-,N/A,,Clear,140,2013-07-25 12:15:00
8:35 AM,59.0,51.8,77,30.10,10.0,Calm,Calm,-,N/A,,Clear,0,2013-07-25 12:35:00
8:54 AM,60.3,52.0,74,30.11,10.0,Calm,Calm,-,N/A,,Clear,0,2013-07-25 12:54:00
9:15 AM,61.9,52.3,71,30.11,10.0,Calm,Calm,-,N/A,,Clear,0,2013-07-25 13:15:00
9:34 AM,63.7,52.5,67,30.11,10.0,Calm,Calm,-,N/A,,Clear,0,2013-07-25 13:34:00
9:55 AM,66.0,52.3,61,30.11,10.0,Calm,Calm,-,N/A,,Clear,0,2013-07-25 13:55:00
10:15 AM,68.0,51.8,56,30.10,10.0,South,3.5,-,N/A,,Clear,180,2013-07-25 14:15:00
10:34 AM,68.5,50.7,53,30.10,10.0,SSW,3.5,-,N/A,,Clear,210,2013-07-25 14:34:00
10:55 AM,69.3,48.4,47,30.10,10.0,SW,3.5,-,N/A,,Clear,220,2013-07-25 14:55:00
11:14 AM,71.4,47.7,43,30.10,10.0,South,3.5,-,N/A,,Clear,180,2013-07-25 15:14:00
11:35 AM,72.5,47.7,41,30.10,10.0,South,4.6,-,N/A,,Clear,170,2013-07-25 15:35:00
11:54 AM,73.4,46.9,39,30.11,10.0,South,6.9,-,N/A,,Scattered Clouds,180,2013-07-25 15:54:00
12:15 PM,73.4,46.4,38,30.10,10.0,SSW,6.9,-,N/A,,Scattered Clouds,200,2013-07-25 16:15:00
12:34 PM,72.3,45.3,38,30.10,10.0,Calm,Calm,-,N/A,,Clear,0,2013-07-25 16:34:00
12:55 PM,72.5,44.8,37,30.10,10.0,WSW,6.9,-,N/A,,Scattered Clouds,250,2013-07-25 16:55:00
1:14 PM,75.2,45.0,34,30.10,10.0,Calm,Calm,-,N/A,,Scattered Clouds,0,2013-07-25 17:14:00
1:35 PM,75.2,45.3,34,30.10,10.0,SSW,4.6,-,N/A,,Scattered Clouds,210,2013-07-25 17:35:00
1:55 PM,74.1,46.2,37,30.09,10.0,SSW,5.8,-,N/A,,Mostly Cloudy,200,2013-07-25 17:55:00
2:14 PM,74.8,45.3,35,30.08,10.0,SSW,5.8,-,N/A,,Mostly Cloudy,200,2013-07-25 18:14:00
2:35 PM,75.6,45.7,35,30.08,10.0,South,8.1,-,N/A,,Scattered Clouds,170,2013-07-25 18:35:00
2:54 PM,74.7,45.7,36,30.08,10.0,South,5.8,-,N/A,,Mostly Cloudy,170,2013-07-25 18:54:00
3:15 PM,77.0,46.4,34,30.08,10.0,South,9.2,-,N/A,,Mostly Cloudy,180,2013-07-25 19:15:00
3:35 PM,77.7,46.9,34,30.08,10.0,SW,8.1,16.1,N/A,,Clear,230,2013-07-25 19:35:00
3:54 PM,77.2,47.3,35,30.08,10.0,SW,9.2,-,N/A,,Scattered Clouds,230,2013-07-25 19:54:00
4:15 PM,77.0,46.9,34,30.08,10.0,South,8.1,-,N/A,,Scattered Clouds,180,2013-07-25 20:15:00
4:34 PM,76.5,46.8,35,30.08,10.0,SSW,13.8,18.4,N/A,,Clear,200,2013-07-25 20:34:00
4:54 PM,76.1,46.2,35,30.07,10.0,SSW,8.1,16.1,N/A,,Clear,200,2013-07-25 20:54:00
5:14 PM,75.6,46.6,36,30.06,10.0,SSW,9.2,-,N/A,,Clear,200,2013-07-25 21:14:00
5:35 PM,75.9,48.0,37,30.05,10.0,SW,10.4,-,N/A,,Clear,220,2013-07-25 21:35:00
5:54 PM,76.1,46.6,35,30.06,10.0,SSW,5.8,-,N/A,,Clear,200,2013-07-25 21:54:00
6:14 PM,75.4,45.0,34,30.06,10.0,SSW,9.2,-,N/A,,Clear,200,2013-07-25 22:14:00
6:35 PM,75.4,43.5,32,30.06,10.0,SSW,9.2,16.1,N/A,,Clear,210,2013-07-25 22:35:00
6:54 PM,74.5,43.9,33,30.06,10.0,South,8.1,-,N/A,,Clear,190,2013-07-25 22:54:00
7:15 PM,72.5,45.0,37,30.06,10.0,SSW,8.1,-,N/A,,Clear,200,2013-07-25 23:15:00
7:34 PM,71.2,44.2,38,30.06,10.0,SSW,6.9,-,N/A,,Clear,210,2013-07-25 23:34:00
7:55 PM,70.0,44.8,40,30.05,10.0,SSW,6.9,-,N/A,,Clear,200,2013-07-25 23:55:00
8:14 PM,68.9,44.8,42,30.05,10.0,South,3.5,-,N/A,,Clear,180,2013-07-26 00:14:00
8:35 PM,67.5,46.8,47,30.04,10.0,SSE,3.5,-,N/A,,Clear,150,2013-07-26 00:35:00
8:55 PM,66.2,45.7,48,30.04,10.0,SSE,3.5,-,N/A,,Clear,160,2013-07-26 00:55:00
9:14 PM,65.3,45.7,49,30.05,10.0,SSE,3.5,-,N/A,,Clear,160,2013-07-26 01:14:00
9:35 PM,63.5,47.3,56,30.05,10.0,Calm,Calm,-,N/A,,Clear,0,2013-07-26 01:35:00
9:54 PM,63.5,47.3,56,30.05,10.0,Calm,Calm,-,N/A,,Clear,0,2013-07-26 01:54:00
10:15 PM,61.5,48.2,62,30.05,10.0,SE,3.5,-,N/A,,Clear,130,2013-07-26 02:15:00
10:34 PM,61.2,49.8,66,30.05,10.0,Calm,Calm,-,N/A,,Clear,0,2013-07-26 02:34:00
10:55 PM,60.4,50.9,71,30.06,10.0,SE,3.5,-,N/A,,Clear,130,2013-07-26 02:55:00
11:14 PM,60.8,51.8,72,30.05,10.0,SE,3.5,-,N/A,,Clear,130,2013-07-26 03:14:00
11:35 PM,60.8,51.8,72,30.05,10.0,SE,3.5,-,N/A,,Clear,130,2013-07-26 03:35:00
11:55 PM,60.8,50.9,70,30.05,10.0,Calm,Calm,-,N/A,,Scattered Clouds,0,2013-07-26 03:55:00